Regional Weather Roundup
Issued by NWS

Home | Current Version | Previous Version | Text Only | Print | Product List | Glossary Off
Versions: 1 2 3 4 5 6 7 8 9 10 11 12 13 14 15 16 17 18 19 20 21 22 23 24 25 26 27 28 29 30 31 32 33 34 35 36 37 38 39 40 41 42 43 44 45 46 47 48 49 50

000
ASUS45 KBOU 242107
RWRCO

WEATHER ROUNDUP FOR COLORADO
NATIONAL WEATHER SERVICE DENVER/BOULDER CO
300 PM MDT WED MAY 24 2017

NOTE: "FAIR" INDICATES FEW OR NO CLOUDS BELOW 12000 FEET WITH NO
SIGNIFICANT WEATHER AND/OR OBSTRUCTIONS TO VISIBILITY.

COZ001>005-013-030-031-242200-
...NORTHWEST COLORADO...

CITY           SKY/WX    TMP DP  RH WIND       PRES   REMARKS
CRAIG          FAIR      76  32  20 W17G26    29.79F
HAYDEN         FAIR      72  30  21 W17G30    29.81F
MEEKER         FAIR      79  25  13 W20G28    29.80F
RABBIT EARS PA FAIR      52  32  46 W7G22     30.04F
STEAMBOAT SPGS FAIR      71  33  24 W16G28    29.82F
WALDEN           N/A     68  32  26 W22G29    29.89F
$$

COZ006>008-011-242200-
...WEST CENTRAL VALLEYS...

CITY           SKY/WX    TMP DP  RH WIND       PRES   REMARKS
GRAND JUNCTION FAIR      84  31  14 NW9G16    29.75F
MONTROSE       FAIR      83  28  13 NW13G25   29.83F
EAGLE          SUNNY     73  30  20 SW25G33   29.85F
RIFLE          FAIR      82  26  13 W14G29    29.79F
DELTA          FAIR      87  28  12 S9        29.78F
NUCLA          FAIR      81  27  13 SW14G23   29.88F
$$

COZ017>023-064>068-242200-
...SOUTHWEST COLORADO...

CITY           SKY/WX    TMP DP  RH WIND       PRES   REMARKS
DURANGO        FAIR      79  27  14 W21       29.93F
CORTEZ         FAIR      81  26  13 W9G30     29.90F
PAGOSA SPRINGS FAIR      76  22  13 SW17G29   29.96F
TELLURIDE      FAIR      66  23  19 W14G25    30.10F
WOLF CREEK PAS FAIR      48  32  53 S14G20    30.30S
$$

COZ009-010-012-014-032>034-037-058>063-242200-
...CENTRAL COLORADO...

CITY           SKY/WX    TMP DP  RH WIND       PRES   REMARKS
ASPEN          FAIR      70  29  21 W13G29    29.91F
BUENA VISTA    FAIR      72  21  15 W28G40    29.92F
COPPER MTN     FAIR      52  21  30 W33G44    30.15F
BERTHOUD PASS  FAIR      39  30  70 NW37G45   30.14S
COTTONWOOD PAS FAIR      64  21  19 NW9G24    30.03F
GUNNISON       FAIR      71  29  21 W16G30    29.95F
KREMMLING      FAIR      77  28  16 W21G30    29.86F
LEADVILLE      FAIR      59  23  25 W15G31    30.04F
MONARCH PASS   FAIR      48  23  37 W37G54    30.28S
SALIDA         FAIR      76  22  13 W16G35    29.96F
SUNLIGHT       FAIR      54  27  35 SW9G26    30.15S
WILKERSON PASS FAIR      54  19  26 W7G23     30.15S
$$

COZ069>075-242200-
...SAN LUIS VALLEY/SANGRE DE CRISTO MOUNTAINS...

CITY           SKY/WX    TMP DP  RH WIND       PRES   REMARKS
ALAMOSA        FAIR      73  26  17 S6        29.92F
DEL NORTE      PTSUNNY   73  26  16 W17G24    29.95F
LA VETA PASS   FAIR      63  25  23 MISG      30.17F
SAGUACHE       FAIR      73  28  19 N23G32    29.94F
$$

COZ035-036-038>040-242200-
...NORTHERN COLORADO FRONT RANGE...

CITY           SKY/WX    TMP DP  RH WIND       PRES   REMARKS
DENVER INTL AP FAIR      80  34  19 NW16G26   29.66F
DMNS CITY PARK   N/A     82  34  18 W9G15     29.65F
AURORA         MOSUNNY   81  36  20 NW9G18    29.69F
FRONT RANGE AP MOSUNNY   82  36  18 W12G20    29.69F
ERIE MUNI ARPT FAIR      82  28  14 W17G26    29.64F
BOULDER MUN AP FAIR      81  32  17 W15G25    29.65F
CENTENNIAL     FAIR      79  30  16 NW12G22   29.70F
BROOMFIELD     MOSUNNY   81  32  17 W16G26    29.70F
FORT COLLINS   FAIR      82  42  24 SW14G20   29.63F
LONGMONT       FAIR      85  38  18 NW6       29.64F
$$

COZ041-046-047-076>085-087-088-242200-
...PIKES PEAK/PALMER DIVIDE AND SOUTHERN FOOTHILLS...

CITY           SKY/WX    TMP DP  RH WIND       PRES   REMARKS
COLO. SPRINGS  FAIR      79  37  22 S8        29.75F
A. F. ACADEMY  FAIR      79  28  15 W10G22    29.75F
SCHRIEVER AFB  FAIR      77  36  22 SW8G20    29.76F
CHEYENNE MTN   FAIR      75  23  14 N8G24     29.75F
ELLICOTT       FAIR     N/A N/A N/A SW12      29.74F
FALCON         FAIR      77  33  19 S5        29.80F
FORT CARSON    FAIR      80  38  22 SE7       29.71F
LIMON          FAIR      78  40  25 S17G23    29.70F
MONUMENT HILL  FAIR      72  32  23 NW8G16    29.82F
CANON CITY     NOT AVBL
WALSENBURG     FAIR      82  34  17 W20G25    29.74F
TRINIDAD       FAIR      79  37  22 SE14G24   29.77F
$$

COZ042>045-048>051-090-091-242200-
...NORTHEAST COLORADO...

CITY           SKY/WX    TMP DP  RH WIND       PRES   REMARKS
GREELEY ARPT   FAIR      83  41  22 S6        29.63F
AKRON          FAIR      78  39  24 SW9G21    29.64F
BURLINGTON     FAIR      75  46  35 S14       29.69F
WRAY           FAIR      79  41  25 S12       29.62F
YUMA           NOT AVBL
STERLING       FAIR      81  45  28 SW12      29.58F
HOLYOKE        NOT AVBL
FORT MORGAN    FAIR      82  35  18 SW10      29.63F
$$

COZ086-089-092>099-242200-
...SOUTHEAST COLORADO...

CITY           SKY/WX    TMP DP  RH WIND       PRES   REMARKS
PUEBLO         FAIR      84  42  22 SE14      29.63F
LA JUNTA       FAIR      83  39  21 S10       29.67F
LAMAR          FAIR      81  40  23 VRB7      29.65F
SPRINGFIELD      N/A     77  40  26 VRB7      29.72F
$$



USA.gov is the U.S. government's official web portal to all federal, state and local government web resources and services.